Flag for Germany Weather past 2 weeks in Hanau, Hesse, Germany

Now
70 °F

Broken clouds.


Feels Like: 70 °F
Forecast: 49 / 71 °F
Wind: 2 mph from Southeast

Location: Frankfurt-M-Flughafen Airport

Current Time: Oct 1, 2014 at 6:04:50 PM

Latest Report: Oct 1, 2014 at 5:20 PM


Visibility: N/A

Pressure: 30.30 "Hg

Humidity: 73%

Dew point: 61 °F

Location of HanauLocation

Historic Weather in Hanau — Graph

°F

Hanau temperature yesterday

Maximum temperature yesterday: 70 °F (at 3:20 PM)
Minimum temperature yesterday: 59 °F (at 11:50 PM)
Average temperature yesterday: 65 °F

Past Weeks' High & Low Weather Summary

 TemperatureHumidityPressure
High77 °F (Sep 17, 3:50 PM)100% (Sep 17, 1:50 AM)30.39 "Hg (Sep 17, 1:50 AM)
Low43 °F (Sep 23, 2:50 AM)47% (Sep 17, 3:50 PM)29.86 "Hg (Sep 17, 4:50 PM)
Average61 °F85%30.10 "Hg
* Reported Sep 16 4:20 PM — Oct 1 4:50 PM, Hanau, Weather by CustomWeather, © 2014

Note: Actual official high and low records may vary slightly from our data, if they occured in-between our weather recording intervals... More about our weather records

Advertising

Hanau weather history for previous 24 hours

 ConditionsComfort  
Time TempWeatherWind HumidityBarometerVisibility
4:50 PM
Oct 1
68 °FBroken clouds.2 mph78%30.30 "HgN/A
4:20 PM68 °FBroken clouds.3 mph78%30.30 "HgN/A
3:50 PM68 °FBroken clouds.3 mph73%30.30 "HgN/A
3:20 PM68 °FBroken clouds.5 mph78%30.30 "HgN/A
2:50 PM68 °FPartly sunny.6 mph78%30.30 "HgN/A
2:20 PM72 °FScattered clouds.2 mph73%30.30 "HgN/A
1:50 PM70 °FScattered clouds.1 mph73%30.30 "HgN/A
1:20 PM66 °FScattered clouds.3 mph83%30.33 "Hg5 mi
12:50 PM64 °FPassing clouds.1 mph94%30.33 "Hg4 mi
12:20 PM61 °FFog.3 mph100%30.33 "Hg2 mi
11:50 AM59 °FFog.3 mph100%30.33 "Hg1 mi
11:20 AM59 °FFog.3 mph100%30.33 "Hg1 mi
10:50 AM59 °FFog.2 mph100%30.33 "Hg1 mi
10:20 AM59 °FFog.1 mph100%30.33 "Hg1 mi
9:50 AM57 °FFog.2 mph100%30.30 "Hg0 mi
9:20 AM57 °FFog.3 mph100%30.30 "Hg0 mi
8:50 AM57 °FFog.3 mph100%30.30 "Hg0 mi
8:20 AM57 °FFog.2 mph100%30.30 "Hg0 mi
7:50 AM57 °FFog.2 mph100%30.30 "Hg0 mi
7:20 AM57 °FCool.2 mph100%30.30 "Hg0 mi
6:50 AM57 °FCool.3 mph100%30.30 "Hg0 mi
6:20 AM55 °FFog.2 mph100%30.30 "Hg0 mi
5:50 AM55 °FPartly cloudy.2 mph100%30.30 "Hg1 mi
5:20 AM55 °FPassing clouds.2 mph100%30.30 "Hg4 mi
4:50 AM54 °FLight fog.2 mph100%30.30 "Hg4 mi
4:20 AM54 °FLight fog.2 mph100%30.30 "Hg4 mi
3:50 AM55 °FFog.1 mph100%30.30 "Hg4 mi
3:20 AM57 °FFog.1 mph100%30.30 "Hg5 mi
2:50 AM57 °FFog.1 mph100%30.30 "HgN/A
2:20 AM57 °FClear.2 mph100%30.30 "Hg10 mi
1:50 AM57 °FClear.1 mph100%30.30 "Hg10 mi
1:20 AM59 °FClear.3 mph100%30.30 "Hg10 mi
12:50 AM59 °FClear.2 mph100%30.30 "Hg10 mi
12:20 AM59 °FClear.1 mph100%30.30 "Hg10 mi
11:50 PM
Sep 30
59 °FClear.1 mph100%30.30 "Hg10 mi
11:20 PM61 °FClear.1 mph94%30.30 "Hg10 mi
10:50 PM61 °FClear.1 mph100%30.30 "Hg10 mi
10:20 PM61 °FClear.1 mph94%30.30 "Hg10 mi
9:50 PM63 °FClear.2 mph94%30.30 "Hg10 mi
9:20 PM64 °FClear.2 mph88%30.30 "Hg10 mi
8:50 PM64 °FClear.2 mph88%30.30 "Hg10 mi
8:20 PM64 °FClear.3 mph94%30.27 "Hg10 mi
7:50 PM66 °FPartly sunny.1 mph83%30.27 "HgN/A
7:20 PM68 °FBroken clouds.3 mph78%30.27 "HgN/A
6:50 PM68 °FScattered showers. Broken clouds.2 mph78%30.27 "HgN/A
6:20 PM68 °FScattered showers. Broken clouds.3 mph78%30.27 "HgN/A
Weather by CustomWeather, © 2014

See weather overviewHow to use our weather pages